Location: Charleville
(26.4021°S, 146.2454°E)
Time: 12:33:23
(UTC+10:00)

N. Korean satellite - Visible Passes

Search period start: 02 October 2022 00:00
Search period end: 12 October 2022 00:00
Orbit: 426 x 468 km, 97.3° (Epoch: 01 October)

Date Brightness Start Highest point End Pass type
(mag) Time Alt. Az. Time Alt. Az. Time Alt. Az.
02 Oct 6.8 05:12:45 10° N 05:15:54 40° W 05:19:09 10° SSW visible
03 Oct 7.6 04:36:56 10° NNE 04:40:08 45° ESE 04:43:26 10° S visible
04 Oct 9.9 04:02:52 10° ENE 04:04:31 13° ESE 04:06:11 10° SE visible
05 Oct 6.3 04:57:40 10° N 05:01:00 76° W 05:04:27 10° SSW visible
06 Oct 8.8 04:22:21 10° NE 04:25:12 26° ESE 04:28:07 10° SSE visible
07 Oct 7.1 05:18:43 10° NNW 05:21:47 33° W 05:24:56 10° SSW visible
08 Oct 7.1 04:42:30 10° NNE 04:45:49 57° ESE 04:49:12 10° S visible
09 Oct 9.7 04:07:50 10° ENE 04:09:58 16° ESE 04:12:08 10° SSE visible
10 Oct 6.4 05:02:58 10° N 05:06:18 62° W 05:09:45 10° SSW visible
11 Oct 8.5 04:27:16 10° NE 04:30:18 31° ESE 04:33:25 10° SSE visible
